DW5852 Weather Reports


Display with metric or nautical units.
time (UTC)temp
F
wind
direction
speed
MPH
gust
MPH
rain 1hr
in
rain 24hr
in
rain mn
in
humidity
%
barometer
mb
20180814084726 60 228 0.0 0.0 0.00 0.00 0.00 46 1032.8
20180814084226 60 226 0.0 0.0 0.00 0.00 0.00 46 1032.9
20180814083726 61 228 0.0 0.0 0.00 0.00 0.00 46 1033.0
20180814083227 61 228 0.0 0.0 0.00 0.00 0.00 45 1033.1
20180814082726 61 226 0.0 1.0 0.00 0.00 0.00 45 1033.2
20180814082226 62 102 0.0 0.0 0.00 0.00 0.00 45 1033.4
20180814081726 62 102 0.0 0.0 0.00 0.00 0.00 44 1033.5
20180814081226 63 101 0.0 0.0 0.00 0.00 0.00 43 1033.5
20180814080726 63 102 0.0 2.0 0.00 0.00 0.00 43 1033.6
20180814080226 62 107 0.0 1.0 0.00 0.00 0.00 43 1033.7
20180814075726 62 191 0.0 0.0 0.00 0.00 0.00 43 1033.7
20180814075226 62 153 0.0 0.0 0.00 0.00 0.00 43 1033.9
20180814074726 63 281 0.0 0.0 0.00 0.00 0.00 41 1034.0
20180814074226 63 281 0.0 0.0 0.00 0.00 0.00 42 1034.0
20180814073726 64 281 0.0 0.0 0.00 0.00 0.00 41 1034.1
20180814073226 64 283 0.0 0.0 0.00 0.00 0.00 40 1034.1
20180814072726 64 283 0.0 0.0 0.00 0.00 0.00 39 1034.3
20180814072226 65 283 0.0 0.0 0.00 0.00 0.00 39 1034.4
20180814071726 65 283 0.0 0.0 0.00 0.00 0.00 38 1034.6
20180814071226 65 278 0.0 1.0 0.00 0.00 0.00 39 1034.6
20180814070726 65 257 0.0 1.0 0.00 0.00 0.00 39 1034.7
20180814070226 65 263 0.0 1.0 0.00 0.00 0.00 39 1034.7
20180814065726 65 295 0.0 1.0 0.00 0.00 0.00 39 1034.7
20180814065226 64 325 0.0 1.0 0.00 0.00 0.00 40 1034.8
20180814064726 64 262 0.0 0.0 0.00 0.00 0.00 40 1035.0
20180814064226 64 253 0.0 1.0 0.00 0.00 0.00 41 1035.0
20180814063727 64 284 0.0 1.0 0.00 0.00 0.00 40 1035.1
20180814063226 64 276 0.0 1.0 0.00 0.00 0.00 40 1035.0
20180814062726 63 325 0.0 0.0 0.00 0.00 0.00 41 1035.0
20180814062226 63 39 0.0 0.0 0.00 0.00 0.00 42 1035.1
20180814061726 63 53 0.0 1.0 0.00 0.00 0.00 43 1035.1
20180814061226 63 26 0.0 1.0 0.00 0.00 0.00 43 1035.2
20180814060726 64 96 0.0 1.0 0.00 0.00 0.00 43 1035.2
20180814060226 64 82 0.0 0.0 0.00 0.00 0.00 42 1035.2
20180814055726 65 158 0.0 2.0 0.00 0.00 0.00 41 1035.2
20180814055226 66 112 0.0 2.0 0.00 0.00 0.00 38 1035.1
20180814054726 66 262 0.0 1.0 0.00 0.00 0.00 37 1035.1
20180814054226 66 278 0.0 1.0 0.00 0.00 0.00 37 1035.1
20180814053726 66 266 0.0 0.0 0.00 0.00 0.00 37 1035.1
20180814053226 66 258 0.0 0.0 0.00 0.00 0.00 37 1035.0
20180814052726 66 259 0.0 0.0 0.00 0.00 0.00 38 1035.0
20180814052226 65 259 0.0 0.0 0.00 0.00 0.00 39 1035.1
20180814051726 66 259 0.0 0.0 0.00 0.00 0.00 38 1035.2
20180814051226 66 258 0.0 0.0 0.00 0.00 0.00 38 1035.2
20180814050726 66 258 0.0 1.0 0.00 0.00 0.00 38 1035.1
20180814050226 65 256 0.0 1.0 0.00 0.00 0.00 39 1035.1
20180814045726 65 266 0.0 1.0 0.00 0.00 0.00 40 1035.2
20180814045226 65 262 0.0 1.0 0.00 0.00 0.00 40 1035.3
20180814044726 65 319 1.0 2.0 0.00 0.00 0.00 40 1035.4
20180814044226 65 238 0.0 2.0 0.00 0.00 0.00 41 1035.4
20180814043726 64 262 0.0 3.0 0.00 0.00 0.00 41 1035.4
20180814043226 64 262 0.0 1.0 0.00 0.00 0.00 42 1035.4
20180814042726 64 256 0.0 2.0 0.00 0.00 0.00 42 1035.3
20180814042226 64 244 1.0 2.0 0.00 0.00 0.00 42 1035.3
20180814041726 65 257 0.0 2.0 0.00 0.00 0.00 41 1035.4
20180814041226 65 242 0.0 2.0 0.00 0.00 0.00 41 1035.5
20180814040726 65 248 0.0 1.0 0.00 0.00 0.00 42 1035.5
20180814040226 64 246 1.0 2.0 0.00 0.00 0.00 42 1035.5
20180814035726 64 232 0.0 2.0 0.00 0.00 0.00 43 1035.5
20180814035226 65 236 0.0 1.0 0.00 0.00 0.00 42 1035.6
20180814034726 65 250 0.0 1.0 0.00 0.00 0.00 42 1035.7
20180814034226 66 235 0.0 1.0 0.00 0.00 0.00 41 1035.7
20180814033726 66 250 0.0 2.0 0.00 0.00 0.00 41 1035.6
20180814033226 66 248 0.0 3.0 0.00 0.00 0.00 40 1035.6
20180814032726 66 250 0.0 2.0 0.00 0.00 0.00 40 1035.7
20180814032226 66 229 0.0 3.0 0.00 0.00 0.00 40 1035.8
20180814031727 66 241 1.0 2.0 0.00 0.00 0.00 40 1035.8
20180814031226 67 225 0.0 2.0 0.00 0.00 0.00 40 1035.7
20180814030727 67 241 0.0 3.0 0.00 0.00 0.00 40 1035.7
20180814030226 67 184 0.0 1.0 0.00 0.00 0.00 39 1035.7
20180814025726 67 248 0.0 2.0 0.00 0.00 0.00 38 1035.7
20180814025226 68 181 0.0 4.0 0.00 0.00 0.00 36 1035.6
20180814024726 69 177 4.0 4.0 0.00 0.00 0.00 35 1035.4
20180814024225 69 161 1.0 2.0 0.00 0.00 0.00 34 1035.4
20180814023726 70 33 0.0 1.0 0.00 0.00 0.00 32 1035.3
20180814023226 70 340 0.0 2.0 0.00 0.00 0.00 31 1035.3
20180814022726 71 70 1.0 1.0 0.00 0.00 0.00 31 1035.2
20180814022226 71 342 0.0 4.0 0.00 0.00 0.00 31 1035.1
20180814021726 70 350 2.0 7.0 0.00 0.00 0.00 31 1035.1
20180814021226 70 85 1.0 3.0 0.00 0.00 0.00 32 1035.1
20180814020726 70 328 1.0 3.0 0.00 0.00 0.00 32 1034.9
20180814020226 70 30 1.0 4.0 0.00 0.00 0.00 32 1034.8
20180814015726 71 277 3.0 5.0 0.00 0.00 0.00 32 1034.7
20180814015226 71 343 0.0 6.0 0.00 0.00 0.00 32 1034.5
20180814014726 71 286 0.0 4.0 0.00 0.00 0.00 32 1034.3
20180814014226 71 340 0.0 6.0 0.00 0.00 0.00 32 1034.2
20180814013726 71 256 1.0 10.0 0.00 0.00 0.00 32 1034.0
20180814013226 72 278 3.0 10.0 0.00 0.00 0.00 32 1033.9
20180814012726 72 268 4.0 7.0 0.00 0.00 0.00 31 1033.5
20180814012226 71 321 2.0 10.0 0.00 0.00 0.00 32 1033.5
20180814011726 71 308 2.0 12.0 0.00 0.00 0.00 32 1033.3
20180814011226 71 284 7.0 17.0 0.00 0.00 0.00 33 1033.2
20180814010726 71 229 4.0 15.0 0.00 0.00 0.00 33 1033.1
20180814010226 71 261 6.0 18.0 0.00 0.00 0.00 34 1032.9
20180814005726 71 256 2.0 15.0 0.00 0.00 0.00 34 1033.1
20180814005226 71 324 7.0 11.0 0.00 0.00 0.00 34 1033.3
20180814004726 72 263 6.0 11.0 0.00 0.00 0.00 32 1033.3
20180814004227 72 259 5.0 19.0 0.00 0.00 0.00 31 1033.1
20180814003726 73 218 3.0 12.0 0.00 0.00 0.00 30 1033.1
20180814003226 73 276 3.0 13.0 0.00 0.00 0.00 29 1032.8
20180814002726 73 254 5.0 19.0 0.00 0.00 0.00 29 1032.7
20180814002226 73 249 10.0 14.0 0.00 0.00 0.00 30 1032.4
20180814001726 73 281 6.0 12.0 0.00 0.00 0.00 29 1032.3
20180814001226 74 310 7.0 17.0 0.00 0.00 0.00 28 1032.1
20180814000726 74 281 10.0 12.0 0.00 0.00 0.00 28 1032.0
20180814000226 74 322 7.0 10.0 0.00 0.00 0.00 29 1032.0
20180813235726 74 229 8.0 16.0 0.00 0.00 0.00 29 1031.4
20180813235226 75 264 9.0 18.0 0.00 0.00 0.00 28 1031.9
20180813234726 75 279 6.0 14.0 0.00 0.00 0.00 28 1031.8
20180813234226 75 276 4.0 20.0 0.00 0.00 0.00 29 1031.7
20180813233726 75 248 5.0 9.0 0.00 0.00 0.00 35 1031.7
20180813233226 76 250 2.0 9.0 0.00 0.00 0.00 35 1031.5
20180813232726 76 287 3.0 7.0 0.00 0.00 0.00 34 1031.3
20180813232226 77 273 2.0 5.0 0.00 0.00 0.00 32 1031.1
20180813231726 78 163 0.0 2.0 0.00 0.00 0.00 33 1031.0
20180813231226 78 190 2.0 3.0 0.00 0.00 0.00 31 1031.0
20180813230726 78 156 1.0 3.0 0.00 0.00 0.00 31 1030.9
20180813230226 79 104 4.0 5.0 0.00 0.00 0.00 28 1030.7
20180813225726 78 26 1.0 9.0 0.00 0.00 0.00 25 1030.7
20180813225226 78 322 1.0 17.0 0.00 0.00 0.00 24 1030.6
20180813224726 78 53 6.0 14.0 0.00 0.00 0.00 23 1030.7
20180813224226 77 272 4.0 14.0 0.00 0.00 0.00 28 1030.6
20180813223726 77 146 2.0 9.0 0.00 0.00 0.00 28 1030.7
20180813223226 77 325 4.0 4.0 0.00 0.00 0.00 34 1030.6
20180813222726 78 208 2.0 5.0 0.00 0.00 0.00 41 1030.5
20180813222226 80 177 2.0 7.0 0.00 0.00 0.00 36 1030.6
20180813221726 81 120 3.0 7.0 0.00 0.00 0.00 30 1030.4
20180813221226 82 98 1.0 7.0 0.00 0.00 0.00 30 1030.2
20180813220726 83 133 4.0 11.0 0.00 0.00 0.00 30 1030.0
20180813220226 83 158 6.0 6.0 0.00 0.00 0.00 30 1030.0
20180813215726 82 175 1.0 7.0 0.00 0.00 0.00 31 1030.0
20180813215226 82 179 6.0 8.0 0.00 0.00 0.00 30 1029.9
20180813214726 83 143 2.0 14.0 0.00 0.00 0.00 29 1029.9
20180813214226 84 175 6.0 8.0 0.00 0.00 0.00 29 1029.7
20180813213726 84 170 1.0 10.0 0.00 0.00 0.00 30 1029.7
20180813213226 84 165 3.0 7.0 0.00 0.00 0.00 30 1029.8
20180813212726 84 150 2.0 15.0 0.00 0.00 0.00 31 1029.8
20180813212226 84 142 7.0 10.0 0.00 0.00 0.00 30 1029.7
20180813211726 84 151 4.0 8.0 0.00 0.00 0.00 30 1029.8
20180813211226 84 122 2.0 10.0 0.00 0.00 0.00 30 1029.8
20180813210726 84 139 4.0 8.0 0.00 0.00 0.00 31 1029.8
20180813210226 83 184 2.0 11.0 0.00 0.00 0.00 31 1029.7
20180813205726 83 165 5.0 12.0 0.00 0.00 0.00 32 1029.7
20180813205226 83 150 3.0 10.0 0.00 0.00 0.00 31 1029.7
20180813204726 83 219 4.0 11.0 0.00 0.00 0.00 32 1029.8
20180813203725 82 139 2.0 10.0 0.00 0.00 0.00 33 1029.8
20180813203226 82 87 1.0 6.0 0.00 0.00 0.00 34 1029.7
20180813202726 82 80 2.0 7.0 0.00 0.00 0.00 34 1029.8
20180813202225 82 165 2.0 7.0 0.00 0.00 0.00 33 1029.8
20180813201726 82 202 3.0 9.0 0.00 0.00 0.00 34 1029.8
20180813201226 82 158 4.0 6.0 0.00 0.00 0.00 34 1029.8
20180813200726 81 151 2.0 7.0 0.00 0.00 0.00 35 1029.8
20180813200226 81 120 0.0 13.0 0.00 0.00 0.00 36 1029.7
20180813195726 81 163 3.0 11.0 0.00 0.00 0.00 35 1029.7
20180813195226 80 167 8.0 8.0 0.00 0.00 0.00 36 1029.7
20180813194726 81 52 5.0 8.0 0.00 0.00 0.00 35 1029.7
20180813194226 81 85 1.0 7.0 0.00 0.00 0.00 35 1029.6
20180813193726 81 79 2.0 7.0 0.00 0.00 0.00 35 1029.7
20180813193226 81 125 2.0 7.0 0.00 0.00 0.00 36 1029.7
20180813192726 81 134 0.0 4.0 0.00 0.00 0.00 35 1029.8
20180813192226 80 188 0.0 5.0 0.00 0.00 0.00 35 1029.7
20180813191725 79 77 4.0 6.0 0.00 0.00 0.00 38 1029.7
20180813191226 79 77 4.0 8.0 0.00 0.00 0.00 38 1029.7
20180813190726 79 176 8.0 8.0 0.00 0.00 0.00 38 1029.7
20180813190226 79 163 8.0 10.0 0.00 0.00 0.00 39 1029.6
20180813185726 79 160 2.0 4.0 0.00 0.00 0.00 39 1029.6
20180813185225 78 267 1.0 10.0 0.00 0.00 0.00 40 1029.7
20180813184726 78 77 0.0 8.0 0.00 0.00 0.00 40 1029.6
20180813184225 78 267 2.0 6.0 0.00 0.00 0.00 40 1029.6
20180813183726 77 201 3.0 6.0 0.00 0.00 0.00 41 1029.7
20180813183226 77 148 4.0 5.0 0.00 0.00 0.00 41 1029.7
20180813182727 77 159 2.0 7.0 0.00 0.00 0.00 40 1029.6
20180813182226 78 155 2.0 7.0 0.00 0.00 0.00 41 1029.7
20180813181726 77 212 0.0 5.0 0.00 0.00 0.00 41 1029.7
20180813181226 77 156 0.0 5.0 0.00 0.00 0.00 41 1029.7
20180813180726 76 149 0.0 7.0 0.00 0.00 0.00 42 1029.7
20180813180226 76 134 0.0 6.0 0.00 0.00 0.00 42 1029.8
20180813175726 75 177 2.0 4.0 0.00 0.00 0.00 43 1029.8
20180813175226 75 193 4.0 4.0 0.00 0.00 0.00 44 1029.8
20180813174726 74 194 1.0 5.0 0.00 0.00 0.00 44 1029.9
20180813174226 74 98 4.0 9.0 0.00 0.00 0.00 43 1029.9
20180813173725 75 162 0.0 6.0 0.00 0.00 0.00 43 1029.9
20180813173226 76 104 4.0 7.0 0.00 0.00 0.00 42 1030.0
20180813172726 76 152 0.0 4.0 0.00 0.00 0.00 43 1030.0
20180813172226 75 82 0.0 4.0 0.00 0.00 0.00 43 1030.0
20180813171726 74 134 1.0 2.0 0.00 0.00 0.00 45 1030.0
20180813171226 73 187 2.0 4.0 0.00 0.00 0.00 46 1030.0
20180813170726 72 152 0.0 4.0 0.00 0.00 0.00 48 1030.0
20180813170226 71 158 0.0 8.0 0.00 0.00 0.00 48 1030.0
20180813165726 73 55 5.0 7.0 0.00 0.00 0.00 46 1030.1
20180813165226 72 165 2.0 7.0 0.00 0.00 0.00 47 1030.2
20180813164726 72 122 0.0 7.0 0.00 0.00 0.00 48 1030.1
20180813164226 72 359 3.0 4.0 0.00 0.00 0.00 47 1030.2
20180813163726 72 98 2.0 6.0 0.00 0.00 0.00 47 1030.1
20180813163226 72 131 4.0 4.0 0.00 0.00 0.00 47 1030.1
20180813162726 72 224 0.0 3.0 0.00 0.00 0.00 47 1030.1
20180813162225 71 129 0.0 4.0 0.00 0.00 0.00 49 1030.2
20180813161726 71 235 0.0 3.0 0.00 0.00 0.00 49 1030.2
20180813161226 70 87 0.0 4.0 0.00 0.00 0.00 49 1030.2
20180813160725 70 233 0.0 3.0 0.00 0.00 0.00 48 1030.2
20180813160226 69 156 1.0 3.0 0.00 0.00 0.00 50 1030.2
20180813155726 68 160 2.0 5.0 0.00 0.00 0.00 52 1030.2
20180813155225 68 73 1.0 5.0 0.00 0.00 0.00 51 1030.3
20180813154727 68 256 1.0 1.0 0.00 0.00 0.00 50 1030.4
20180813154226 68 126 0.0 3.0 0.00 0.00 0.00 50 1030.4
20180813153726 68 150 0.0 1.0 0.00 0.00 0.00 48 1030.5
20180813153225 68 226 0.0 1.0 0.00 0.00 0.00 49 1030.5
20180813152726 67 155 1.0 2.0 0.00 0.00 0.00 49 1030.5
20180813152226 66 169 0.0 3.0 0.00 0.00 0.00 53 1030.5
20180813151725 65 55 2.0 2.0 0.00 0.00 0.00 55 1030.7
20180813151226 65 90 1.0 5.0 0.00 0.00 0.00 55 1030.8
20180813150726 65 65 0.0 4.0 0.00 0.00 0.00 54 1030.8
20180813150226 65 53 1.0 5.0 0.00 0.00 0.00 54 1030.9
20180813145726 66 90 0.0 1.0 0.00 0.00 0.00 52 1030.9
20180813145226 65 96 0.0 3.0 0.00 0.00 0.00 54 1030.9
20180813144726 65 129 0.0 2.0 0.00 0.00 0.00 54 1031.0
20180813144226 65 103 0.0 2.0 0.00 0.00 0.00 54 1030.9
20180813143726 65 86 1.0 2.0 0.00 0.00 0.00 54 1030.9
20180813143226 65 41 1.0 2.0 0.00 0.00 0.00 53 1030.9
20180813142726 65 107 0.0 0.0 0.00 0.00 0.00 53 1031.0
20180813142226 64 100 0.0 0.0 0.00 0.00 0.00 54 1031.0
20180813141726 63 95 0.0 0.0 0.00 0.00 0.00 56 1030.9
20180813141226 63 82 0.0 1.0 0.00 0.00 0.00 57 1031.1
20180813140727 62 84 0.0 1.0 0.00 0.00 0.00 57 1031.2
20180813140226 62 74 0.0 1.0 0.00 0.00 0.00 57 1031.2
20180813135726 61 110 0.0 2.0 0.00 0.00 0.00 59 1031.2
20180813135226 61 86 0.0 1.0 0.00 0.00 0.00 60 1031.1
20180813134726 61 28 0.0 1.0 0.00 0.00 0.00 59 1031.2
20180813134226 60 11 0.0 2.0 0.00 0.00 0.00 59 1031.3
20180813133726 60 26 1.0 2.0 0.00 0.00 0.00 59 1031.4
20180813133226 60 26 0.0 1.0 0.00 0.00 0.00 59 1031.5
20180813132725 60 9 0.0 1.0 0.00 0.00 0.00 59 1031.7
20180813132226 59 344 0.0 1.0 0.00 0.00 0.00 60 1031.9
20180813131726 59 325 0.0 1.0 0.00 0.00 0.00 60 1031.9
20180813131226 59 1 0.0 2.0 0.00 0.00 0.00 59 1031.9
20180813130726 58 9 0.0 1.0 0.00 0.00 0.00 59 1032.0
20180813130226 58 53 1.0 1.0 0.00 0.00 0.00 59 1032.1
20180813125726 58 55 0.0 1.0 0.00 0.00 0.00 59 1032.2
20180813125225 57 41 0.0 0.0 0.00 0.00 0.00 60 1032.1
20180813124726 57 41 0.0 1.0 0.00 0.00 0.00 60 1032.2
20180813124226 56 68 0.0 0.0 0.00 0.00 0.00 60 1032.2
20180813123726 56 317 0.0 0.0 0.00 0.00 0.00 60 1032.3
20180813123226 56 318 0.0 0.0 0.00 0.00 0.00 61 1032.2
20180813122725 56 318 0.0 0.0 0.00 0.00 0.00 62 1032.3
20180813122226 55 322 0.0 0.0 0.00 0.00 0.00 65 1032.4
20180813121726 55 115 0.0 0.0 0.00 0.00 0.00 65 1032.5
20180813121226 55 115 0.0 0.0 0.00 0.00 0.00 63 1032.5
20180813120726 56 115 0.0 0.0 0.00 0.00 0.00 63 1032.5
20180813120225 55 136 0.0 0.0 0.00 0.00 0.00 64 1032.5
20180813115726 55 155 0.0 0.0 0.00 0.00 0.00 64 1032.5
20180813115226 55 155 0.0 0.0 0.00 0.00 0.00 63 1032.6
20180813114725 55 155 0.0 0.0 0.00 0.00 0.00 62 1032.5
20180813114226 55 148 0.0 0.0 0.00 0.00 0.00 61 1032.6
20180813113726 55 158 0.0 0.0 0.00 0.00 0.00 61 1032.7
20180813113225 55 158 0.0 0.0 0.00 0.00 0.00 62 1032.7
20180813112726 55 158 0.0 0.0 0.00 0.00 0.00 60 1032.9
20180813112226 55 158 0.0 0.0 0.00 0.00 0.00 62 1032.8
20180813111725 55 158 0.0 0.0 0.00 0.00 0.00 63 1033.0
20180813111226 55 158 0.0 0.0 0.00 0.00 0.00 64 1033.1
20180813110726 55 158 0.0 0.0 0.00 0.00 0.00 64 1033.2
20180813110226 55 158 0.0 0.0 0.00 0.00 0.00 64 1033.4
20180813105726 55 158 0.0 0.0 0.00 0.00 0.00 65 1033.5
20180813105225 54 158 0.0 0.0 0.00 0.00 0.00 70 1033.7
20180813104726 55 158 0.0 0.0 0.00 0.00 0.00 70 1033.7
20180813104225 55 158 0.0 0.0 0.00 0.00 0.00 71 1033.8
20180813103726 55 197 0.0 0.0 0.00 0.00 0.00 68 1034.0
20180813103226 55 250 0.0 0.0 0.00 0.00 0.00 69 1034.1
20180813102725 55 235 0.0 0.0 0.00 0.00 0.00 67 1034.2
20180813102225 55 235 0.0 0.0 0.00 0.00 0.00 72 1034.2
20180813101725 55 235 0.0 0.0 0.00 0.00 0.00 74 1034.3
20180813101226 55 181 0.0 0.0 0.00 0.00 0.00 75 1034.3
20180813100726 55 180 0.0 0.0 0.00 0.00 0.00 75 1034.5
20180813100226 56 181 0.0 0.0 0.00 0.00 0.00 74 1034.5
20180813095725 56 226 0.0 0.0 0.00 0.00 0.00 74 1034.6
20180813095226 56 194 0.0 0.0 0.00 0.00 0.00 74 1034.7
20180813094726 56 232 0.0 0.0 0.00 0.00 0.00 73 1034.9
20180813094226 56 200 0.0 0.0 0.00 0.00 0.00 73 1035.0
20180813093726 56 160 0.0 0.0 0.00 0.00 0.00 72 1035.1
20180813093226 57 203 0.0 0.0 0.00 0.00 0.00 73 1035.3
20180813092726 57 184 0.0 1.0 0.00 0.00 0.00 73 1035.3
20180813092226 57 233 0.0 0.0 0.00 0.00 0.00 73 1035.4
20180813091726 57 200 0.0 0.0 0.00 0.00 0.00 72 1035.5
20180813091225 57 210 0.0 2.0 0.00 0.00 0.00 71 1035.6
20180813090726 57 164 0.0 2.0 0.00 0.00 0.00 70 1035.6
20180813090226 58 172 0.0 0.0 0.00 0.00 0.00 69 1035.7
20180813085726 58 163 0.0 1.0 0.00 0.00 0.00 68 1035.8
20180813085226 58 193 0.0 2.0 0.00 0.00 0.00 67 1035.9